Content
SEND FEEDBACK

Daily
Averages
Monthly
Summary
United Kingdom

LONDON, ENGLAND


Home > Europe > United Kingdom > England
Elevation: 203 feet     Latitude: 51 09N     Longitude: 000 11W

WEATHER
 
SELECT A DAY
Number of Records: 292,742;   Date Range: 7/1/96 - 7/24/14
 
SHARE

PRINT THIS DATA

[ ← Previous Day ]
WEATHER ALMANAC - FEBRUARY 4, 2013
[ Next Day → ]
[ °C ]   °F
Weather ElementAverageHighLow
Temperature47.4 °F50 °F (4:20 am)42.8 °F (8:20 pm)
Dewpoint38.5 °F46.4 °F (5:50 am)32 °F (3:50 pm)
Humidity72.3 %87 % (12:50 am)54 % (1:20 pm)
Barometer29.91 in29.98 in (11:20 am)29.77 in (11:50 pm)
Wind Speed15.2 mph23 mph (5:20 am)
Wind Gust29.9 mph (1:20 pm)
Weather ElementAverage
Visibility6.2 mi
Wind DirectionWSW (258.9 °)

Weather ElementTotal
Precipitation---
Heating Degree Days18.6 (Base 65)
Averaged from 44 records on February 4, 2013
WEATHER CONDITIONS BREAKOUT
WIND DIRECTION BREAKOUT
WEATHER BY HOUR - FEBRUARY 4, 2013
[ °C ]   °F
Local TimeTemperatureDewpointHumidityBarometerVisibilityWind DirectionWind SpeedGust SpeedPrecipitationEventsConditions
12:50 AM48.2 °F44.6 °F87 %29.92 in6.2 miWest (260°)13.8 mphScattered Clouds
1:20 AM48.2 °F44.6 °F87 %29.92 in6.2 miWSW (250°)13.8 mphPartly Cloudy
1:50 AM48.2 °F42.8 °F82 %29.92 in6.2 miWSW (250°)13.8 mphPartly Cloudy
2:20 AM48.2 °F42.8 °F82 %29.92 in6.2 miWSW (250°)11.5 mphScattered Clouds
2:50 AM48.2 °F42.8 °F82 %29.89 in6.2 miWest (260°)12.7 mphMostly Cloudy
3:20 AM48.2 °F42.8 °F82 %29.89 in6.2 miWest (260°)12.7 mphMostly Cloudy
3:50 AM48.2 °F44.6 °F87 %29.89 in6.2 miWest (270°)13.8 mphMostly Cloudy
4:20 AM50.0 °F44.6 °F82 %29.89 in6.2 miWest (270°)21.9 mphMostly Cloudy
4:50 AM50.0 °F44.6 °F82 %29.89 in6.2 miWest (270°)19.6 mphOvercast
5:20 AM50.0 °F44.6 °F82 %29.89 in6.2 miWest (270°)23.0 mphMostly Cloudy
5:50 AM50.0 °F46.4 °F87 %29.89 in5.0 miWest (270°)17.3 mphRainLight Rain
6:20 AM50.0 °F46.4 °F87 %29.89 in6.2 miWSW (240°)13.8 mphMostly Cloudy
6:50 AM50.0 °F44.6 °F82 %29.89 in6.2 miWSW (250°)15.0 mphMostly Cloudy
7:20 AM50.0 °F44.6 °F82 %29.89 in6.2 miWSW (250°)13.8 mphMostly Cloudy
7:50 AM50.0 °F44.6 °F82 %29.92 in6.2 miWest (260°)15.0 mphMostly Cloudy
8:20 AM50.0 °F44.6 °F82 %29.92 in6.2 miWSW (250°)13.8 mphMostly Cloudy
8:50 AM50.0 °F42.8 °F76 %29.92 in6.2 miWest (260°)15.0 mphMostly Cloudy
9:20 AM50.0 °F42.8 °F76 %29.92 in6.2 miWest (260°)17.3 mphMostly Cloudy
11:20 AM50.0 °F35.6 °F58 %29.98 in6.2 miWNW (300°)15.0 mphMostly Cloudy
11:50 AM50.0 °F35.6 °F58 %29.98 in6.2 miWNW (290°)19.6 mphMostly Cloudy
12:20 PM50.0 °F37.4 °F62 %29.95 in6.2 miWest (280°)21.9 mphScattered Clouds
12:50 PM50.0 °F35.6 °F58 %29.95 in6.2 miWNW (290°)18.4 mphMostly Cloudy
1:20 PM50.0 °F33.8 °F54 %29.95 in6.2 miWest (280°)18.4 mph29.9 mphMostly Cloudy
1:50 PM50.0 °F33.8 °F54 %29.95 in6.2 miWest (280°)20.7 mphMostly Cloudy
2:20 PM48.2 °F33.8 °F58 %29.95 in6.2 miWNW (290°)18.4 mphScattered Clouds
2:50 PM48.2 °F33.8 °F58 %29.95 in6.2 miWest (280°)15.0 mphMostly Cloudy
3:20 PM48.2 °F33.8 °F58 %29.95 in6.2 miWest (280°)17.3 mphMostly Cloudy
3:50 PM48.2 °F32.0 °F54 %29.92 in6.2 miWest (270°)16.1 mphMostly Cloudy
4:20 PM46.4 °F35.6 °F66 %29.92 in6.2 miWest (260°)15.0 mphMostly Cloudy
4:50 PM44.6 °F35.6 °F71 %29.95 in6.2 miWest (260°)18.4 mphScattered Clouds
5:20 PM44.6 °F35.6 °F71 %29.95 in6.2 miWest (260°)12.7 mphPartly Cloudy
5:50 PM44.6 °F35.6 °F71 %29.95 inWest (260°)12.7 mphClear
6:20 PM44.6 °F33.8 °F66 %29.92 inWSW (250°)13.8 mphClear
6:50 PM44.6 °F33.8 °F66 %29.92 inWSW (250°)13.8 mphClear
7:20 PM44.6 °F33.8 °F66 %29.92 inWSW (250°)15.0 mphClear
7:50 PM44.6 °F33.8 °F66 %29.89 inWSW (240°)15.0 mphClear
8:20 PM42.8 °F33.8 °F70 %29.89 inWSW (240°)11.5 mphClear
8:50 PM42.8 °F33.8 °F70 %29.89 in6.2 miSW (230°)11.5 mphMostly Cloudy
9:20 PM44.6 °F33.8 °F66 %29.86 in6.2 miWSW (240°)11.5 mphMostly Cloudy
9:50 PM44.6 °F33.8 °F66 %29.86 in6.2 miWSW (240°)10.4 mphMostly Cloudy
10:20 PM42.8 °F35.6 °F76 %29.83 in6.2 miSW (230°)11.5 mphMostly Cloudy
10:50 PM42.8 °F35.6 °F76 %29.83 in6.2 miSW (230°)11.5 mphScattered Clouds
11:20 PM42.8 °F35.6 °F76 %29.80 in6.2 miSW (230°)12.7 mphRainLight Rain
11:50 PM42.8 °F35.6 °F76 %29.77 in6.2 miSW (230°)12.7 mphScattered Clouds
Hourly data recorded from EGKK, located miles away from London, England







STORIES FROM OUR PARTNERS